sat.trackr.live / text

‹ back to catalog

KUIPER-00269

NORAD 68587 · 2026-072Q

PAYLOAD ACTIVE UNKNOWN

§ Identity

Operator
Country
US
Launch date
2026-04-04
Launch site
AFETR
Launch vehicle
Mass (kg)
RCS (m²)

External: N2YO · Heavens-Above · Gunter

§ Orbital elements

Epoch: 2026-05-25T02:48:53.106912Z

Period
93.60 min
Inclination
51.8730°
Eccentricity
0.0004316
Mean motion
15.38493093 rev/d
Perigee alt
447.6 km
Apogee alt
453.5 km
Semi-major
6,828.7 km
B*
8.1987e-4
RAAN
288.3137°
Arg perigee
280.4929°
Mean anomaly
79.5572°
Rev number
783

§ Raw data

KUIPER-002691 68587U 26072Q   26145.11728133  .00031377  00000+0  81987-3 0  99912 68587  51.8730 288.3137 0004316 280.4929  79.5572 15.38493093  7838

JSON: /api/v1/satellites/68587 · /tle

For live sub-satellite position, see the globe view (requires WebGL).

§ Visibility from observer

Set your observer location to see the next 7 days of passes ≥ 10°. The values pass through the URL so the page stays shareable.

No JS? Fill the form by hand. The geolocation button needs JavaScript.